| time (UTC) | temp F | wind direction | speed MPH | gust MPH | rain 1hr in | rain 24hr in | rain mn in | humidity % | barometer mb |
| 20260506201823 | 46 | 355 | 3.0 | 7.0 | 0.03 | 0.47 | 0.39 | 98 | 1004.9 |
| 20260506200336 | 46 | 313 | 3.0 | 7.0 | 0.03 | 0.53 | 0.38 | 98 | 1004.7 |
| 20260506194830 | 46 | 313 | 3.0 | 7.0 | 0.04 | 0.53 | 0.38 | 98 | 1004.7 |
| 20260506193321 | 47 | 313 | 5.0 | 10.0 | 0.02 | 0.51 | 0.36 | 98 | 1004.7 |
| 20260506191835 | 47 | 5 | 1.0 | 4.0 | 0.02 | 0.51 | 0.36 | 98 | 1004.3 |
| 20260506190329 | 47 | 342 | 2.0 | 4.0 | 0.02 | 0.50 | 0.35 | 98 | 1004.1 |
| 20260506184824 | 47 | 360 | 2.0 | 5.0 | 0.01 | 0.49 | 0.34 | 98 | 1004.1 |
| 20260506183339 | 47 | 351 | 2.0 | 4.0 | 0.02 | 0.49 | 0.34 | 98 | 1004.1 |
| 20260506181829 | 47 | 344 | 2.0 | 4.0 | 0.02 | 0.49 | 0.34 | 98 | 1004.0 |
| 20260506180324 | 46 | 360 | 1.0 | 3.0 | 0.02 | 0.48 | 0.33 | 98 | 1004.0 |
| 20260506174835 | 46 | 298 | 3.0 | 5.0 | 0.03 | 0.48 | 0.33 | 98 | 1003.8 |
| 20260506173330 | 46 | 29 | 2.0 | 4.0 | 0.03 | 0.47 | 0.32 | 98 | 1003.8 |
| 20260506171820 | 45 | 324 | 2.0 | 4.0 | 0.03 | 0.47 | 0.32 | 98 | 1004.0 |
| 20260506170335 | 45 | 32 | 3.0 | 6.0 | 0.02 | 0.46 | 0.31 | 98 | 1004.1 |
| 20260506164828 | 46 | 31 | 3.0 | 6.0 | 0.02 | 0.45 | 0.30 | 98 | 1003.9 |
| 20260506163322 | 46 | 38 | 4.0 | 13.0 | 0.02 | 0.44 | 0.29 | 97 | 1003.6 |
| 20260506161833 | 50 | 322 | 7.0 | 9.0 | 0.04 | 0.44 | 0.29 | 97 | 1003.4 |
| 20260506160324 | 56 | 109 | 0.0 | 4.0 | 0.05 | 0.44 | 0.29 | 99 | 1003.3 |
| 20260506154837 | 56 | 146 | 1.0 | 5.0 | 0.04 | 0.43 | 0.28 | 99 | 1003.4 |
| 20260506153328 | 55 | 88 | 2.0 | 4.0 | 0.04 | 0.42 | 0.27 | 99 | 1003.5 |
| 20260506151826 | 55 | 163 | 1.0 | 4.0 | 0.02 | 0.40 | 0.25 | 99 | 1003.5 |
| 20260506150336 | 55 | 115 | 2.0 | 4.0 | 0.02 | 0.39 | 0.24 | 99 | 1003.1 |
| 20260506144830 | 55 | 89 | 1.0 | 3.0 | 0.03 | 0.39 | 0.24 | 99 | 1003.3 |
| 20260506143319 | 53 | 110 | 1.0 | 3.0 | 0.04 | 0.38 | 0.23 | 99 | 1003.5 |
| 20260506141830 | 52 | 82 | 1.0 | 2.0 | 0.08 | 0.38 | 0.23 | 99 | 1003.6 |
| 20260506140326 | 50 | 360 | 0.0 | 2.0 | 0.11 | 0.37 | 0.22 | 99 | 1003.7 |
| 20260506134816 | 50 | 355 | 1.0 | 2.0 | 0.12 | 0.36 | 0.21 | 98 | 1003.9 |
| 20260506133334 | 50 | 44 | 0.0 | 4.0 | 0.11 | 0.34 | 0.19 | 98 | 1004.1 |
| 20260506131825 | 49 | 113 | 1.0 | 2.0 | 0.08 | 0.30 | 0.15 | 98 | 1004.2 |
| 20260506130320 | 49 | 148 | 0.0 | 4.0 | 0.04 | 0.26 | 0.11 | 98 | 1004.0 |
| 20260506124831 | 49 | 311 | 0.0 | 1.0 | 0.04 | 0.24 | 0.09 | 98 | 1003.8 |
| 20260506123321 | 48 | 21 | 0.0 | 1.0 | 0.03 | 0.23 | 0.08 | 98 | 1003.8 |
| 20260506121836 | 48 | 22 | 0.0 | 1.0 | 0.03 | 0.22 | 0.07 | 98 | 1004.1 |
| 20260506120327 | 47 | 360 | 0.0 | 1.0 | 0.03 | 0.22 | 0.07 | 98 | 1004.5 |
| 20260506114822 | 47 | 360 | 0.0 | 1.0 | 0.02 | 0.20 | 0.05 | 98 | 1004.6 |
| 20260506113333 | 47 | 360 | 0.0 | 1.0 | 0.02 | 0.20 | 0.05 | 98 | 1004.8 |
| 20260506111827 | 47 | 355 | 1.0 | 3.0 | 0.01 | 0.19 | 0.04 | 98 | 1005.1 |
| 20260506110337 | 47 | 355 | 2.0 | 4.0 | 0.02 | 0.20 | 0.04 | 98 | 1005.2 |
| 20260506104828 | 47 | 26 | 1.0 | 6.0 | 0.02 | 0.19 | 0.03 | 98 | 1004.9 |
| 20260506103326 | 47 | 10 | 1.0 | 4.0 | 0.02 | 0.19 | 0.03 | 98 | 1004.6 |
| 20260506101836 | 47 | 242 | 1.0 | 4.0 | 0.03 | 0.19 | 0.03 | 98 | 1004.4 |
| 20260506100330 | 47 | 355 | 2.0 | 7.0 | 0.02 | 0.18 | 0.02 | 98 | 1004.5 |
| 20260506094821 | 48 | 5 | 1.0 | 4.0 | 0.01 | 0.17 | 0.01 | 98 | 1004.7 |
| 20260506093334 | 48 | 46 | 1.0 | 2.0 | 0.01 | 0.17 | 0.01 | 98 | 1004.6 |
| 20260506091828 | 48 | 355 | 1.0 | 2.0 | 0.00 | 0.16 | 0.00 | 98 | 1004.7 |
| 20260506090322 | 48 | 331 | 1.0 | 4.0 | 0.00 | 0.16 | 0.00 | 98 | 1004.7 |
| 20260506084832 | 47 | 331 | 1.0 | 2.0 | 0.00 | 0.16 | 0.00 | 98 | 1004.6 |
| 20260506083322 | 47 | 269 | 0.0 | 2.0 | 0.00 | 0.16 | 0.00 | 97 | 1004.7 |
| 20260506081836 | 47 | 309 | 0.0 | 2.0 | 0.00 | 0.16 | 0.00 | 97 | 1004.7 |
| 20260506080326 | 47 | 5 | 2.0 | 3.0 | 0.00 | 0.23 | 0.00 | 97 | 1004.8 |
| 20260506073338 | 47 | 51 | 1.0 | 6.0 | 0.00 | 0.23 | 0.00 | 97 | 1005.3 |
| 20260506071833 | 47 | 340 | 3.0 | 6.0 | 0.00 | 0.23 | 0.00 | 97 | 1005.5 |
| 20260506070328 | 47 | 321 | 2.0 | 4.0 | 0.00 | 0.23 | 0.00 | 97 | 1005.7 |
| 20260506061828 | 47 | 350 | 3.0 | 5.0 | 0.00 | 0.23 | 0.00 | 97 | 1006.3 |
| 20260506060322 | 46 | 17 | 1.0 | 2.0 | 0.00 | 0.23 | 0.00 | 96 | 1006.3 |
| 20260506050332 | 47 | 336 | 0.0 | 4.0 | 0.00 | 0.23 | 0.00 | 94 | 1007.1 |
| 20260506044826 | 48 | 336 | 2.0 | 4.0 | 0.00 | 0.23 | 0.00 | 94 | 1006.9 |
| 20260506043337 | 48 | 24 | 3.0 | 5.0 | 0.00 | 0.23 | 0.00 | 93 | 1007.0 |
| 20260506041831 | 49 | 315 | 1.0 | 5.0 | 0.00 | 0.23 | 0.00 | 93 | 1007.2 |
| 20260506040322 | 49 | 49 | 2.0 | 5.0 | 0.00 | 0.23 | 0.23 | 92 | 1007.4 |
| 20260506034835 | 50 | 299 | 6.0 | 9.0 | 0.00 | 0.23 | 0.23 | 93 | 1007.3 |
| 20260506033325 | 51 | 19 | 1.0 | 4.0 | 0.00 | 0.23 | 0.23 | 93 | 1007.3 |
| 20260506031821 | 51 | 323 | 0.0 | 2.0 | 0.00 | 0.23 | 0.23 | 93 | 1007.4 |
| 20260506030330 | 52 | 343 | 1.0 | 5.0 | 0.00 | 0.23 | 0.23 | 93 | 1007.4 |
| 20260506024824 | 52 | 345 | 4.0 | 6.0 | 0.00 | 0.23 | 0.23 | 93 | 1007.4 |
| 20260506023338 | 52 | 9 | 2.0 | 4.0 | 0.00 | 0.23 | 0.23 | 93 | 1007.6 |
| 20260506021828 | 52 | 350 | 2.0 | 3.0 | 0.00 | 0.23 | 0.23 | 94 | 1007.5 |
| 20260506020322 | 53 | 302 | 1.0 | 3.0 | 0.00 | 0.23 | 0.23 | 94 | 1006.9 |
| 20260506014832 | 53 | 28 | 0.0 | 3.0 | 0.00 | 0.23 | 0.23 | 94 | 1006.9 |
| 20260506013325 | 54 | 106 | 1.0 | 7.0 | 0.00 | 0.23 | 0.23 | 93 | 1006.7 |
| 20260506011835 | 54 | 328 | 4.0 | 10.0 | 0.01 | 0.23 | 0.23 | 93 | 1006.7 |
| 20260506010325 | 55 | 342 | 5.0 | 10.0 | 0.01 | 0.23 | 0.23 | 93 | 1006.3 |
| 20260506004820 | 57 | 355 | 6.0 | 17.0 | 0.01 | 0.23 | 0.23 | 94 | 1006.1 |
| 20260506003331 | 57 | 265 | 2.0 | 3.0 | 0.01 | 0.23 | 0.23 | 97 | 1005.7 |
| 20260506001828 | 58 | 271 | 1.0 | 2.0 | 0.01 | 0.22 | 0.22 | 97 | 1005.0 |
| 20260506000338 | 59 | 162 | 0.0 | 1.0 | 0.01 | 0.22 | 0.22 | 96 | 1004.7 |
| 20260505234834 | 59 | 167 | 1.0 | 2.0 | 0.02 | 0.22 | 0.22 | 96 | 1004.7 |
| 20260505233325 | 60 | 281 | 0.0 | 1.0 | 0.02 | 0.22 | 0.22 | 95 | 1004.5 |
| 20260505231836 | 61 | 89 | 1.0 | 2.0 | 0.01 | 0.21 | 0.21 | 94 | 1004.6 |
| 20260505230330 | 62 | 115 | 1.0 | 3.0 | 0.01 | 0.21 | 0.21 | 92 | 1004.6 |
| 20260505224821 | 62 | 103 | 2.0 | 4.0 | 0.00 | 0.20 | 0.20 | 93 | 1004.1 |
| 20260505223339 | 63 | 98 | 1.0 | 2.0 | 0.00 | 0.20 | 0.20 | 90 | 1004.1 |
| 20260505221829 | 64 | 157 | 1.0 | 4.0 | 0.00 | 0.20 | 0.20 | 88 | 1004.1 |
| 20260505220322 | 65 | 123 | 2.0 | 6.0 | 0.00 | 0.20 | 0.20 | 86 | 1004.1 |
| 20260505214834 | 65 | 229 | 1.0 | 4.0 | 0.00 | 0.20 | 0.20 | 87 | 1003.6 |
| 20260505213327 | 64 | 11 | 1.0 | 3.0 | 0.01 | 0.20 | 0.20 | 92 | 1003.6 |
| 20260505211822 | 62 | 119 | 2.0 | 8.0 | 0.04 | 0.20 | 0.20 | 93 | 1003.6 |
| 20260505210333 | 61 | 251 | 2.0 | 4.0 | 0.05 | 0.20 | 0.20 | 93 | 1003.6 |
| 20260505204830 | 60 | 121 | 1.0 | 6.0 | 0.06 | 0.20 | 0.20 | 91 | 1004.1 |
| 20260505203321 | 61 | 309 | 2.0 | 14.0 | 0.10 | 0.19 | 0.19 | 89 | 1004.7 |